Regional Weather Roundup
Issued by NWS

Home | Current Version | Previous Version | Graphics & Text | Print | Product List | Glossary On
Versions: 1 2 3 4 5 6 7 8 9 10 11 12 13 14 15 16 17 18 19 20 21 22 23 24 25 26 27 28 29 30 31 32 33 34 35 36 37 38 39 40 41 42 43 44 45 46 47 48 49 50
189
ASUS45 KABQ 222310
RWRNM
NEW MEXICO REGIONAL WEATHER ROUNDUP
NATIONAL WEATHER SERVICE ALBUQUERQUE NM
500 PM MDT WED MAR 22 2017

NOTE: "FAIR" MEANS FEW OR NO CLOUDS BELOW 12,000 FEET AGL WITH NO
       SIGNIFICANT WEATHER OR OBSTRUCTIONS TO VISION.

      THIS PRODUCT IS RELEASED AS TWO VERSIONS.  ONE VERSION NEAR
      THE TOP OF THE HOUR CONTAINING PRELIMINARY DATA FROM ALBUQUERQUE
      AND OTHER STATIONS.  A FINAL VERSION WITH ADDITIONAL DATA IS
      ISSUED ABOUT 10 MINUTES AFTER THE HOUR.

NMZ501-503-504-510>518-230000-
NORTHWEST PLATEAU/NORTHCENTRAL MOUNTAINS

CITY           SKY/WX    TMP DP  RH WIND       PRES   REMARKS
FARMINGTON     FAIR      71   8   8 S15       29.90F
LOS ALAMOS     FAIR      69  16  13 SW17G25   30.05F
SANTA FE       FAIR      77  18  11 SW15G24   29.98F
TAOS             N/A     68  16  13 SW21G30   30.03F
ANGEL FIRE     FAIR      64  17  16 SW16G31   30.10F

$$
NMZ402-403-502-505>509-230000-
WESTCENTRAL MOUNTAINS/SOUTHWEST MOUNTAINS

CITY           SKY/WX    TMP DP  RH WIND       PRES   REMARKS
GALLUP         FAIR      67  21  17 W24G32    30.00F
GRANTS         FAIR      75  14  10 S21G29    29.97F
SILVER CITY    FAIR      78  22  12 SW20G30   30.02S

$$
NMZ407-409-411-412-230000-
SOUTHERN DESERTS

CITY           SKY/WX    TMP DP  RH WIND       PRES   REMARKS
DEMING         FAIR      87  17   7 W15G21    29.93F
LAS CRUCES     FAIR      87  10   5 SW22      29.95F
HOLLOMAN AFB   FAIR      87  13   6 S22G29    29.94F
ALAMOGORDO     FAIR      86  19   8 S17G29    29.93F
T OR C         FAIR      83  13   7 SW25G35   29.93F

$$
NMZ519>523-230000-
CENTRAL VALLEYS/CENTRAL HIGHLANDS

CITY           SKY/WX    TMP DP  RH WIND       PRES   REMARKS
ALBUQUERQUE    PTSUNNY   81  15   8 S24G40    29.91F
DOUBLE EAGLE   PTSUNNY   79  21  11 SE12      29.95F
MORIARTY ARPT  FAIR      79  10   7 S30G41    30.00F
CLINES CORNERS PTSUNNY   73   7   7 SW35G43   30.06F
BELEN          FAIR      82  13   7 S30G37    29.90F
SOCORRO        FAIR      82  13   7 S30G43    29.90F

$$
NMZ524>526-539-540-230000-
SOUTHCENTRAL MOUNTAINS

CITY           SKY/WX    TMP DP  RH WIND       PRES   REMARKS
RUIDOSO        FAIR      75   7   7 SW24G37   30.09F

$$
NMZ527>531-230000-
NORTHEAST HIGHLANDS/NORTHEAST PLAINS

CITY           SKY/WX    TMP DP  RH WIND       PRES   REMARKS
LAS VEGAS      FAIR      67  36  31 S29G37    30.03F
RATON          FAIR      73  33  23 S31G41    29.94F
CLAYTON        FAIR      69  43  38 S25G35    29.97F

$$
NMZ532>537-230000-
EASTCENTRAL PLAINS

CITY           SKY/WX    TMP DP  RH WIND       PRES   REMARKS
SANTA ROSA     FAIR      78  37  22 S22G28    29.95F
TUCUMCARI      FAIR      81  42  25 S22       29.92F
CANNON AFB     FAIR      77  46  32 SE17      29.99F
CLOVIS AIRPORT FAIR      75  48  38 S18       30.00F

$$
NMZ028-029-538-230000-
SOUTHEAST PLAINS

CITY           SKY/WX    TMP DP  RH WIND       PRES   REMARKS
ROSWELL        FAIR      86  43  22 SE21      29.92F
ARTESIA        FAIR      86  46  25 SE15G23   29.91F
CARLSBAD       FAIR      88  45  22 SE15G23   29.89F
HOBBS          SUNNY     84  50  30 E14G20    29.97F


$$




USA.gov is the U.S. government's official web portal to all federal, state and local government web resources and services.